This demonstration page uses our WeatherBlox Daily Observations layout. Learn more.

41.55636, -103.73856

Hourly Observations for January 22, 2020

Temp ( °F °C ) Dew Point ( °F °C ) Humidity (%) Winds ( mph kmh ) Pressure ( in mb ) Visibility ( mi km ) Precip ( " mm )
12:56 am 00:56 Mostly Clear 41 4.9 26 -3.6 55 55 SW 3 6 29.87 1012 10 16.0934 0 0
1:56 am 01:56 Mostly Cloudy 40 4.5 26 -3.4 57 57 SW 5 7 29.87 1012 10 16.0934 0 0
2:56 am 02:56 Mostly Cloudy 40 4.2 26 -3.2 59 59 W 5 7 29.85 1011 10 16.0934 0 0
3:56 am 03:56 Mostly Cloudy 38 3.3 28 -2.4 67 67 WSW 7 11 29.83 1010 10 16.0934 0 0
4:56 am 04:56 Clear 35 1.8 27 -2.7 72 72 W 13 20 29.84 1011 10 16.0934 0 0
5:56 am 05:56 Mostly Cloudy 31 -0.6 26 -3.2 83 83 WSW 10 17 29.82 1010 10 16.0934 0 0
6:56 am 06:56 Clear 33 0.4 27 -2.7 80 80 WSW 7 11 29.79 1009 10 16.0934 0 0
7:57 am 07:57 Mostly Cloudy 38 3.4 29 -1.6 70 70 W 15 24 29.76 1008 10 16.0934 0 0
8:56 am 08:56 Mostly Cloudy 38 3.4 28 -2.5 66 66 NW 9 15 29.78 1008 10 16.0934 0 0
9:56 am 09:56 Partly Cloudy 37 2.6 27 -2.8 68 68 WNW 17 28 29.75 1008 10 16.0934 0 0
10:56 am 10:56 Partly Cloudy 37 2.8 26 -3.4 64 64 W 8 13 29.78 1008 10 16.0934 0 0
11:56 am 11:56 Partly Cloudy 37 2.7 25 -3.7 63 63 WNW 17 28 29.79 1009 10 16.0934 0 0
12:56 pm 12:56 Partly Cloudy 35 1.7 25 -3.9 67 67 WNW 14 22 29.81 1010 10 16.0934 0 0
1:56 pm 13:56 Clear 35 1.7 25 -4 66 66 NW 17 28 29.83 1010 10 16.0934 0 0
2:56 pm 14:56 Mostly Cloudy 34 1.2 25 -4 69 69 WNW 15 24 29.85 1011 10 16.0934 0 0
3:56 pm 15:56 Sunny 36 2.3 25 -4 63 63 NW 15 24 29.86 1011 10 16.0934 0 0
4:56 pm 16:56 Sunny 43 6.2 24 -4.2 48 48 NW 22 35 29.86 1011 10 16.0934 0 0
5:56 pm 17:56 Sunny 44 6.6 24 -4.4 46 46 NW 23 37 29.89 1012 10 16.0934 0 0
6:58 pm 18:58 Sunny 47 8.1 23 -4.9 40 40 NW 26 43 29.82 1010 10 16.0934 0 0
7:58 pm 19:58 Sunny 47 8.5 22 -5.4 37 37 NW 25 41 29.81 1009 10 16.0934 0 0
8:58 pm 20:58 Mostly Cloudy 48 8.7 20 -6.7 33 33 WNW 28 44 29.8 1009 10 16.0934 0 0
9:58 pm 21:58 Mostly Cloudy 44 6.6 21 -5.9 41 41 NNW 22 35 29.88 1012 10 16.0934 0 0
10:58 pm 22:58 Mostly Cloudy 43 6 24 -4.7 47 47 NNW 21 33 29.92 1013 10 16.0934 0 0
11:58 pm 23:58 Mostly Cloudy 37 2.7 26 -3.1 66 66 NNW 17 28 30.03 1017 10 16.0934 0 0

Powered by AerisWeather